• MPC Preparation (Info)

  • MPEC 2013-R89 : 2013 RM43

    The following Minor Planet Electronic Circular may be linked-to from your own Web pages, but must not otherwise be redistributed electronically.

    A form allowing access to any MPEC is at the bottom of this page.


    Read MPEC 2013-R88 Read MPEC 2013-R90


    M.P.E.C. 2013-R89                                Issued 2013 Sept. 13, 12:28 UT
    
         The Minor Planet Electronic Circulars contain information on unusual
             minor planets and routine data on comets.  They are published
       on behalf of Commission 20 of the International Astronomical Union by the
              Minor Planet Center, Smithsonian Astrophysical Observatory,
                              Cambridge, MA 02138, U.S.A.
    
                 Prepared using the Tamkin Foundation Computer Network
    
                                  MPC@CFA.HARVARD.EDU
                URL https://www.minorplanetcenter.net/    ISSN 1523-6714
    
                                       2013 RM43
    
    Observations:
         K13R43M* C2013 09 10.57076 02 19 02.971-04 17 18.01         21.2 gLER089F51
         K13R43M  C2013 09 10.57282 02 19 03.069-04 17 17.35         21.2 gLER089F51
         K13R43M  C2013 09 10.57431 02 19 03.156-04 17 17.04         21.2 gLER089F51
         K13R43M  C2013 09 10.57579 02 19 03.223-04 17 16.31         21.3 gLER089F51
         K13R43M  C2013 09 10.57728 02 19 03.299-04 17 15.88         21.2 gLER089F51
         K13R43M  C2013 09 10.57877 02 19 03.377-04 17 15.31         21.1 gLER089F51
         K13R43M  C2013 09 10.58025 02 19 03.457-04 17 14.85         21.1 gLER089F51
         K13R43M  C2013 09 10.58526 02 19 03.702-04 17 13.33         20.8 rLER089F51
         K13R43M  C2013 09 10.58674 02 19 03.791-04 17 12.69         20.7 rLER089F51
         K13R43M  C2013 09 10.58823 02 19 03.865-04 17 12.20         20.6 rLER089F51
         K13R43M  C2013 09 10.59269 02 19 04.078-04 17 10.84         20.8 rLER089F51
         K13R43M  C2013 09 11.33490602 19 45.81 -04 12 49.0          20.8 VqER089W85
         K13R43M  C2013 09 11.33773902 19 45.95 -04 12 47.8          21.0 VqER089W85
         K13R43M  C2013 09 11.34056502 19 46.10 -04 12 47.0          21.0 VqER089W85
         K13R43M  C2013 09 11.34338902 19 46.24 -04 12 45.9          20.9 VqER089W85
         K13R43M  C2013 09 11.34621302 19 46.39 -04 12 44.9          20.8 VqER089W85
         K13R43M  C2013 09 11.34903602 19 46.52 -04 12 44.1          20.7 VqER089W85
         K13R43M  C2013 09 11.35186002 19 46.66 -04 12 43.1          21.0 VqER089W85
         K13R43M  C2013 09 11.35468502 19 46.82 -04 12 42.0          21.0 VqER089W85
         K13R43M |C2013 09 11.35785 02 19 46.98 -04 12 41.2          21.0 VuER089807
         K13R43M  C2013 09 11.36264102 19 47.22 -04 12 39.3          20.6 VqER089W85
         K13R43M |C2013 09 11.36422 02 19 47.30 -04 12 39.0          21.0 VuER089807
         K13R43M  C2013 09 11.36553102 19 47.36 -04 12 38.4          20.6 VqER089W85
         K13R43M  C2013 09 11.36841202 19 47.49 -04 12 37.4          20.9 VqER089W85
         K13R43M |C2013 09 11.36996 02 19 47.59 -04 12 37.0          20.9 VuER089807
         K13R43M  C2013 09 11.37129402 19 47.64 -04 12 36.6          20.5 VqER089W85
         K13R43M  C2013 09 11.37417602 19 47.78 -04 12 35.5          21.0 VqER089W85
         K13R43M  C2013 09 11.37705702 19 47.93 -04 12 34.5          20.9 VqER089W85
         K13R43M  C2013 09 11.37993802 19 48.07 -04 12 33.7          20.8 VqER089W85
         K13R43M KC2013 09 11.39910 02 19 49.48 -04 12 43.2          20.4 RqER089H36
         K13R43M KC2013 09 11.40583 02 19 49.78 -04 12 40.9          20.5 RqER089H36
         K13R43M KC2013 09 11.41241 02 19 50.10 -04 12 38.7          20.9 RqER089H36
         K13R43M |C2013 09 12.22796 02 20 35.73 -04 07 39.2          20.9 VuER089807
         K13R43M |C2013 09 12.23670 02 20 36.22 -04 07 35.7          21.0 VuER089807
         K13R43M |C2013 09 12.24438 02 20 36.58 -04 07 33.0          21.0 VuER089807
         K13R43M |C2013 09 13.26357 02 21 32.00 -04 01 25.1          20.9 VuER089807
         K13R43M |C2013 09 13.26915 02 21 32.27 -04 01 23.1          21.0 VuER089807
         K13R43M |C2013 09 13.27415 02 21 32.52 -04 01 21.3          20.7 VuER089807
    
    Observer details:
    807 Cerro Tololo.  Observers T. Linder, R. Holmes.  Measurers T. Linder,
        R. Holmes, K. Baker, S. Momaly.  0.41-m f/11 Ritchey-Chretien + CCD.
    F51 Pan-STARRS 1, Haleakala.  Observers N. Primak, A. Schultz. T. Goggia,
        M. Willman.  Measurer PS1 Science Consortium.  1.8-m Ritchey-Chretien
        + CCD.
    H36 Sandlot Observatory, Scranton.  Observer G. Hug.  0.56-m reflector + CCD.
    W85 Cerro Tololo-LCOGT A.  Observer T. Lister.  1.0-m f/8 Ritchey-Chretien
        + CCD.
    
    Orbital elements:
    2013 RM43                                                Earth MOID = 0.0769 AU
    Epoch 2013 Nov. 4.0 TT = JDT 2456600.5                  MPC
    M 345.62738              (2000.0)            P               Q
    n   0.32862980     Peri.   68.14365     -0.16217825     -0.97805619
    a   2.0796875      Node    32.07240     +0.78977654     -0.20811484
    e   0.5762093      Incl.   14.25873     +0.59156676     +0.00971113
    P   3.00           H   19.8           G   0.15           U   8
    Residuals in seconds of arc
    130910 F51  0.0   0.0     130911 W85  0.0   0.0     130911 W85  0.3-  0.0
    130910 F51  0.1-  0.0     130911 W85  0.0   0.2+    130911 W85  0.2-  0.0
    130910 F51  0.1+  0.2-    130911 W85  0.1+  0.2+    130911 W85  0.3-  0.2-
    130910 F51  0.0   0.1+    130911 W85  0.1-  0.0     130911 H36  0.9+  0.0
    130910 F51  0.0   0.0     130911 W85  0.1-  0.1+    130911 H36  0.3+  0.0
    130910 F51  0.0   0.1+    130911 W85  0.1+  0.2+    130911 H36  0.0   0.0
    130910 F51  0.1+  0.0     130911 807  0.1+  0.1-    130912 807  0.6-  0.4-
    130910 F51  0.1-  0.1-    130911 W85  0.1+  0.2+    130912 807  0.2+  0.0
    130910 F51  0.1+  0.0     130911 807  0.1+  0.1-    130912 807  0.2-  0.1+
    130910 F51  0.1+  0.0     130911 W85  0.0   0.1+    130913 807  0.1+  0.0
    130910 F51  0.1-  0.1-    130911 W85  0.2-  0.1+    130913 807  0.0   0.0
    130911 W85  0.0   0.0     130911 807  0.1+  0.0     130913 807  0.1+  0.1-
    130911 W85  0.1-  0.2+    130911 W85  0.2-  0.1-
    
    Ephemeris:
    2013 RM43                a,e,i = 2.08, 0.58, 14                  q = 0.8814
    Date    TT    R. A. (2000) Decl.     Delta      r     Elong.  Phase     V
    2013 08 14    01 48 25.8 -06 14 33   1.0106  1.7267   117.1    31.5    22.4
    ...
    2013 08 29    02 06 07.9 -05 15 27   0.7871  1.6060   126.2    30.5    21.6
    ...
    2013 09 06    02 14 36.0 -04 40 34   0.6760  1.5401   131.3    29.5    21.2
    ...
    2013 09 12    02 20 22.7 -04 09 06   0.5969  1.4902   135.1    28.5    20.8
    2013 09 13    02 21 17.4 -04 03 09   0.5841  1.4818   135.8    28.3    20.7
    2013 09 14    02 22 11.2 -03 56 56   0.5713  1.4735   136.4    28.1    20.7
    ...
    2013 09 20    02 27 13.9 -03 13 03   0.4971  1.4232   140.4    26.7    20.3
    ...
    2013 09 28    02 32 58.0 -01 47 52   0.4039  1.3559   146.0    24.4    19.6
    ...
    2013 10 13    02 40 02.7 +04 01 27   0.2479  1.2310   157.9    17.7    18.1
    
    A. U. Tomatic                (C) Copyright 2013 MPC           M.P.E.C. 2013-R89
    

    Read MPEC 2013-R88 Read MPEC 2013-R90


    MPEC number:

    Enter an MPEC number in one of the following forms:

    • 1997-B01 (the full form)
    • J97B01 (the packed version of the full form)
    • B01 (the abbreviated form)